Location: ČR
(50.0000°N, 15.0000°E)
Time: 08:14:42
(UTC+00:00)

Vanguard 2 Rocket - Visible Passes

Search period start: 21 October 2021 00:00
Search period end: 31 October 2021 00:00
Orbit: 556 x 3323 km, 32.9° (Epoch: 20 October)

Date Brightness Start Highest point End Pass type
(mag) Time Alt. Az. Time Alt. Az. Time Alt. Az.
22 Oct 10.0 04:39:34 10° SSW 04:46:01 17° SSE 04:50:53 10° SE visible
23 Oct 10.2 03:39:25 10° SSW 03:46:05 16° SSE 03:51:17 10° SE visible
24 Oct 10.4 02:39:58 10° S 02:45:56 14° SSE 02:50:53 10° SE visible
24 Oct 9.7 04:50:59 10° SW 04:59:31 22° S 05:05:27 10° SE visible
25 Oct 10.6 01:42:26 10° SSE 01:45:39 11° SSE 01:48:35 10° SE visible
25 Oct 9.9 03:50:02 10° SSW 03:59:32 22° SSE 04:06:16 10° ESE visible
26 Oct 10.1 02:49:25 10° SSW 02:59:19 20° SSE 03:06:39 10° ESE visible
26 Oct 9.6 05:03:07 10° SW 05:12:59 27° S 05:19:31 10° SE visible
27 Oct 10.4 01:51:09 12° S 01:58:55 18° SSE 02:06:22 10° ESE visible
27 Oct 9.7 04:01:39 10° SW 04:12:58 27° S 04:20:32 10° ESE visible
28 Oct 10.6 00:55:13 13° SSE 00:58:24 14° SSE 01:04:57 10° ESE visible
28 Oct 9.9 03:01:02 11° SSW 03:12:41 27° SSE 03:21:12 10° ESE visible
28 Oct 10.8 23:59:10 10° SE 23:59:10 10° SE 23:59:37 10° SE visible
29 Oct 10.1 02:04:59 18° S 02:12:09 24° SSE 02:21:24 10° ESE visible
29 Oct 9.6 04:13:51 10° SW 04:26:19 32° S 04:34:26 10° ESE visible
30 Oct 10.3 01:08:51 20° SSE 01:11:29 21° SSE 01:21:00 10° ESE visible
30 Oct 9.7 03:14:39 15° SW 03:25:59 32° S 03:35:15 10° ESE visible
